Weather History for Columbia Airport, CA

Change the Weather History Date:

Thursday, October 10, 2013

  Actual Average (KMOD) Record (KMOD)
Temperature  
Mean Temperature 52 °F -  
Max Temperature 66 °F 82 °F 101 °F (1991)
Min Temperature 39 °F 54 °F 38 °F (1961)
Degree Days  
Heating Degree Days 12 1  
Month to date heating degree days 7  
Since 1 July heating degree days 10  
Cooling Degree Days 0 4  
Month to date cooling degree days 49  
Year to date cooling degree days 1661  
Growing Degree Days 2 (Base 50)    
Moisture  
Dew Point 38 °F    
Average Humidity 66    
Maximum Humidity 93    
Minimum Humidity 35    
Precipitation  
Precipitation 0.00 in 0.01 in 0.37 in (1957)
Month to date precipitation 0.14  
Year to date precipitation 9.17  
Since 1 July precipitation 0.42  
Snow  
Snow 0.00 in - 0.00 in (2002)
Month to date snowfall  
Since 1 July snowfall  
Since 1 September snowfall  
Snow Depth -    
Sea Level Pressure  
Sea Level Pressure 29.91 in    
Wind  
Wind Speed 1 mph (SSW)    
Max Wind Speed 7 mph    
Max Gust Speed -    
Visibility 10 miles    
Events      
T = Trace of Precipitation, MM = Missing Value Source: NWS Daily Summary

Daily Weather History Graph

Daily Weather History Graph

Search for Another Location

Airport:

Trip Planner

Search our weather history database for the weather conditions in past years. The results will help you decide how hot, cold, wet, or windy it might be!

Date:

Astronomy

Oct. 10, 2013 Rise Set
Actual Time 7:05 AM PDT 6:30 PM PDT
Civil Twilight 6:39 AM PDT 6:56 PM PDT
Nautical Twilight 6:08 AM PDT 7:27 PM PDT
Astronomical Twilight 5:38 AM PDT 7:57 PM PDT
Moon 12:58 PM PDT (10/10) 11:17 PM PDT (10/10)
Length of Visible Light 12h 17m
Length of Day
11h 24m
Waxing Crescent, 37% of the Moon is Illuminated
Oct 10
Waxing Crescent
Oct 11
First Quarter
Oct 18
Full
Oct 26
Last Quarter
Nov 3
New

Hourly Weather History & Observations

Time (PDT) Temp. Dew Point Humidity Pressure Visibility Wind Dir Wind Speed Gust Speed Precip Events Conditions
12:15 AM 41.0 °F 37.4 °F 87% 29.76 in 10.0 mi Calm Calm - N/A   Clear
12:35 AM 41.0 °F 37.4 °F 87% 29.77 in 8.0 mi Calm Calm - N/A   Clear
12:55 AM 41.0 °F 37.4 °F 87% 29.78 in 10.0 mi Calm Calm - N/A   Clear
1:15 AM 41.0 °F 37.4 °F 87% 29.79 in 10.0 mi Calm Calm - N/A   Clear
1:35 AM 39.2 °F 37.4 °F 93% 29.79 in 10.0 mi Calm Calm - N/A   Clear
1:55 AM 39.2 °F 37.4 °F 93% 29.80 in 10.0 mi Calm Calm - N/A   Clear
2:15 AM 39.2 °F 37.4 °F 93% 29.81 in 10.0 mi Calm Calm - N/A   Clear
2:35 AM 39.2 °F 37.4 °F 93% 29.81 in 10.0 mi Calm Calm - N/A   Clear
2:55 AM 39.2 °F 37.4 °F 93% 29.81 in 10.0 mi Calm Calm - N/A   Clear
3:15 AM 39.2 °F 37.4 °F 93% 29.80 in 10.0 mi Calm Calm - N/A   Clear
3:35 AM 39.2 °F 37.4 °F 93% 29.81 in 10.0 mi Calm Calm - N/A   Clear
3:55 AM 39.2 °F 37.4 °F 93% 29.82 in 10.0 mi Calm Calm - N/A   Clear
4:15 AM 39.2 °F 37.4 °F 93% 29.81 in 10.0 mi Calm Calm - N/A   Clear
4:35 AM 39.2 °F 37.4 °F 93% 29.80 in 10.0 mi Calm Calm - N/A   Clear
4:55 AM 39.2 °F 37.4 °F 93% 29.83 in 9.0 mi Calm Calm - N/A   Clear
5:15 AM 39.2 °F 37.4 °F 93% 29.83 in 10.0 mi Calm Calm - N/A   Clear
5:35 AM 39.2 °F 37.4 °F 93% 29.84 in 10.0 mi Calm Calm - N/A   Clear
5:55 AM 39.2 °F 37.4 °F 93% 29.84 in 10.0 mi Calm Calm - N/A   Clear
6:15 AM 39.2 °F 37.4 °F 93% 29.86 in 10.0 mi Calm Calm - N/A   Clear
6:35 AM 39.2 °F 37.4 °F 93% 29.87 in 9.0 mi Calm Calm - N/A   Clear
6:55 AM 39.2 °F 37.4 °F 93% 29.87 in 9.0 mi Calm Calm - N/A   Clear
7:15 AM 39.2 °F 37.4 °F 93% 29.87 in 10.0 mi Calm Calm - N/A   Clear
7:35 AM 39.2 °F 37.4 °F 93% 29.88 in 10.0 mi Calm Calm - N/A   Clear
7:55 AM 42.8 °F 39.2 °F 87% 29.88 in 10.0 mi Calm Calm - N/A   Clear
8:15 AM 44.6 °F 41.0 °F 87% 29.89 in 10.0 mi Calm Calm - N/A   Clear
8:35 AM 48.2 °F 41.0 °F 76% 29.89 in 10.0 mi Calm Calm - N/A   Clear
8:55 AM 53.6 °F 41.0 °F 62% 29.90 in 10.0 mi Calm Calm - N/A   Clear
9:15 AM 53.6 °F 41.0 °F 62% 29.90 in 10.0 mi SSE 4.6 mph - N/A   Clear
9:35 AM 53.6 °F 39.2 °F 58% 29.92 in 10.0 mi Calm Calm - N/A   Clear
9:55 AM 55.4 °F 39.2 °F 54% 29.93 in 10.0 mi South 5.8 mph - N/A   Clear
10:15 AM 55.4 °F 39.2 °F 54% 29.94 in 10.0 mi SSW 3.5 mph - N/A   Clear
10:35 AM 57.2 °F 39.2 °F 51% 29.94 in 10.0 mi SSW 3.5 mph - N/A   Clear
10:55 AM 57.2 °F 39.2 °F 51% 29.95 in 10.0 mi South 4.6 mph - N/A   Clear
11:15 AM 57.2 °F 39.2 °F 51% 29.95 in 10.0 mi Calm Calm - N/A   Clear
11:35 AM 59.0 °F 39.2 °F 48% 29.96 in 10.0 mi SW 6.9 mph - N/A   Clear
11:55 AM 60.8 °F 39.2 °F 45% 29.96 in 10.0 mi SSW 5.8 mph - N/A   Clear
12:15 PM 60.8 °F 39.2 °F 45% 29.96 in 10.0 mi SSW 6.9 mph - N/A   Clear
12:35 PM 60.8 °F 39.2 °F 45% 29.96 in 9.0 mi South 4.6 mph - N/A   Clear
12:55 PM 60.8 °F 39.2 °F 45% 29.96 in 10.0 mi Calm Calm - N/A   Clear
1:15 PM 62.6 °F 39.2 °F 42% 29.95 in 10.0 mi South 4.6 mph - N/A   Clear
1:35 PM 64.4 °F 39.2 °F 40% 29.95 in 10.0 mi Calm Calm - N/A   Clear
1:55 PM 62.6 °F 39.2 °F 42% 29.95 in 10.0 mi South 5.8 mph - N/A   Clear
2:15 PM 64.4 °F 37.4 °F 37% 29.95 in 10.0 mi Calm Calm - N/A   Clear
2:35 PM 62.6 °F 37.4 °F 39% 29.95 in 10.0 mi South 6.9 mph - N/A   Clear
2:55 PM 64.4 °F 37.4 °F 37% 29.96 in 10.0 mi WSW 4.6 mph - N/A   Clear
3:15 PM 66.2 °F 37.4 °F 35% 29.95 in 10.0 mi Calm Calm - N/A   Clear
3:35 PM 66.2 °F 37.4 °F 35% 29.95 in 10.0 mi Calm Calm - N/A   Clear
3:55 PM 64.4 °F 37.4 °F 37% 29.95 in 10.0 mi SSW 4.6 mph - N/A   Clear
4:15 PM 64.4 °F 37.4 °F 37% 29.95 in 10.0 mi Calm Calm - N/A   Clear
4:35 PM 64.4 °F 37.4 °F 37% 29.95 in 10.0 mi Calm Calm - N/A   Clear
4:55 PM 64.4 °F 37.4 °F 37% 29.95 in 10.0 mi Calm Calm - N/A   Clear
5:15 PM 64.4 °F 37.4 °F 37% 29.95 in 10.0 mi SSW 3.5 mph - N/A   Clear
5:35 PM 62.6 °F 37.4 °F 39% 29.95 in 10.0 mi Calm Calm - N/A   Clear
5:55 PM 62.6 °F 37.4 °F 39% 29.95 in 10.0 mi Calm Calm - N/A   Clear
6:15 PM 62.6 °F 37.4 °F 39% 29.95 in 10.0 mi Calm Calm - N/A   Clear
6:35 PM 57.2 °F 37.4 °F 48% 29.96 in 10.0 mi Calm Calm - N/A   Clear
6:55 PM 55.4 °F 37.4 °F 51% 29.97 in 10.0 mi Calm Calm - N/A   Clear
7:15 PM 53.6 °F 37.4 °F 54% 29.97 in 10.0 mi Calm Calm - N/A   Clear
7:35 PM 51.8 °F 37.4 °F 58% 29.97 in 10.0 mi Calm Calm - N/A   Clear
7:55 PM 50.0 °F 37.4 °F 62% 29.98 in 10.0 mi Calm Calm - N/A   Clear
8:15 PM 50.0 °F 37.4 °F 62% 29.98 in 10.0 mi Calm Calm - N/A   Clear
8:35 PM 50.0 °F 37.4 °F 62% 29.99 in 10.0 mi Calm Calm - N/A   Clear
8:55 PM 48.2 °F 37.4 °F 66% 30.00 in 10.0 mi Calm Calm - N/A   Clear
9:15 PM 46.4 °F 37.4 °F 71% 30.00 in 10.0 mi Calm Calm - N/A   Clear
9:35 PM 48.2 °F 37.4 °F 66% 30.00 in 10.0 mi Calm Calm - N/A   Clear
9:55 PM 48.2 °F 37.4 °F 66% 30.01 in 10.0 mi Calm Calm - N/A   Clear
10:15 PM 46.4 °F 37.4 °F 71% 30.01 in 10.0 mi Calm Calm - N/A   Clear
10:35 PM 44.6 °F 37.4 °F 76% 30.02 in 10.0 mi Calm Calm - N/A   Clear
10:55 PM 44.6 °F 37.4 °F 76% 30.02 in 10.0 mi Calm Calm - N/A   Clear
11:15 PM 46.4 °F 37.4 °F 71% 30.02 in 10.0 mi Calm Calm - N/A   Clear
11:55 PM 44.6 °F 37.4 °F 76% 30.01 in 10.0 mi Calm Calm - N/A   Clear